CW4185 Weather Reports


Display with metric or nautical units.
time (UTC)temp
F
wind
direction
speed
MPH
gust
MPH
rain 1hr
in
rain 24hr
in
rain mn
in
humidity
%
barometer
mb
20260506022647 74 144 5.0 7.0 0.00 0.00 0.00 88 1011.5
20260506022148 74 141 6.0 9.0 0.00 0.00 0.00 88 1011.5
20260506021646 74 166 7.0 9.0 0.00 0.00 0.00 88 1011.5
20260506021147 74 155 3.0 7.0 0.00 0.00 0.00 88 1011.5
20260506020647 75 155 7.0 8.0 0.00 0.00 0.00 87 1011.5
20260506020146 75 141 5.0 8.0 0.00 0.00 0.00 87 1011.5
20260506015647 75 144 7.0 7.0 0.00 0.00 0.00 86 1011.5
20260506015146 75 156 7.0 10.0 0.00 0.00 0.00 85 1011.5
20260506014649 75 149 3.0 7.0 0.00 0.00 0.00 84 1011.2
20260506014147 75 154 5.0 8.0 0.00 0.00 0.00 84 1011.2
20260506013647 75 161 4.0 6.0 0.00 0.00 0.00 84 1011.2
20260506013147 75 163 3.0 6.0 0.00 0.00 0.00 85 1011.2
20260506012646 75 164 6.0 8.0 0.00 0.00 0.00 85 1011.2
20260506012147 76 154 5.0 8.0 0.00 0.00 0.00 85 1011.2
20260506011646 76 156 5.0 8.0 0.00 0.00 0.00 84 1011.5
20260506011147 76 163 8.0 9.0 0.00 0.00 0.00 83 1011.2
20260506010647 76 164 5.0 8.0 0.00 0.00 0.00 83 1011.2
20260506010147 76 178 8.0 11.0 0.00 0.00 0.00 82 1011.2
20260506005647 77 166 7.0 8.0 0.00 0.00 0.00 81 1011.5
20260506005147 76 153 8.0 10.0 0.00 0.00 0.00 81 1011.2
20260506004649 77 159 9.0 12.0 0.00 0.00 0.00 82 1011.2
20260506004146 77 163 7.0 9.0 0.00 0.00 0.00 82 1011.2
20260506003653 77 176 8.0 9.0 0.00 0.00 0.00 81 1011.2
20260506003146 77 160 8.0 10.0 0.00 0.00 0.00 81 1011.5
20260506002647 77 171 7.0 9.0 0.00 0.00 0.00 80 1011.2
20260506002147 77 170 9.0 11.0 0.00 0.00 0.00 80 1011.2
20260506001647 77 166 10.0 13.0 0.00 0.00 0.00 80 1011.2
20260506001146 77 174 10.0 11.0 0.00 0.00 0.00 79 1011.2
20260506000648 77 159 7.0 9.0 0.00 0.00 0.00 79 1011.2
20260506000147 77 162 6.0 13.0 0.00 0.00 0.00 79 1011.2
20260505235646 77 152 7.0 12.0 0.00 0.00 0.00 79 1011.2
20260505235147 77 156 9.0 12.0 0.00 0.00 0.00 79 1011.2
20260505234646 78 162 6.0 11.0 0.00 0.00 0.00 79 1011.2
20260505234147 78 163 7.0 17.0 0.00 0.00 0.00 78 1011.2
20260505233647 78 148 7.0 12.0 0.00 0.00 0.00 77 1011.2
20260505233147 78 158 10.0 12.0 0.00 0.00 0.00 77 1011.2
20260505232646 78 171 7.0 13.0 0.00 0.00 0.00 76 1011.2
20260505232147 78 163 7.0 11.0 0.00 0.00 0.00 76 1011.2
20260505231646 78 162 5.0 11.0 0.00 0.00 0.00 76 1011.5
20260505231148 78 160 13.0 16.0 0.00 0.00 0.00 76 1011.5
20260505230646 78 157 7.0 16.0 0.00 0.00 0.00 76 1011.5
20260505230146 79 163 11.0 14.0 0.00 0.00 0.00 74 1011.2
20260505225646 79 133 7.0 10.0 0.00 0.00 0.00 76 1011.2
20260505225146 79 167 10.0 16.0 0.00 0.00 0.00 75 1011.2
20260505224647 79 168 9.0 13.0 0.00 0.00 0.00 75 1011.5
20260505224147 79 166 9.0 11.0 0.00 0.00 0.00 74 1011.2
20260505223647 79 154 9.0 17.0 0.00 0.00 0.00 74 1011.2
20260505223147 79 178 13.0 17.0 0.00 0.00 0.00 74 1011.2
20260505222646 79 205 10.0 17.0 0.00 0.00 0.00 74 1011.2
20260505222147 79 162 7.0 17.0 0.00 0.00 0.00 74 1011.2
20260505221649 79 164 11.0 17.0 0.00 0.00 0.00 72 1011.2
20260505221147 79 175 6.0 16.0 0.00 0.00 0.00 73 1011.2
20260505220647 80 155 9.0 15.0 0.00 0.00 0.00 73 1011.2
20260505220148 80 156 8.0 16.0 0.00 0.00 0.00 73 1011.2
20260505215647 80 171 15.0 18.0 0.00 0.00 0.00 73 1011.2
20260505215147 80 158 7.0 17.0 0.00 0.00 0.00 73 1011.2
20260505214647 80 134 8.0 18.0 0.00 0.00 0.00 73 1011.2
20260505214147 80 169 9.0 19.0 0.00 0.00 0.00 71 1011.2
20260505213646 80 150 13.0 17.0 0.00 0.00 0.00 74 1011.5
20260505213147 79 165 14.0 20.0 0.00 0.00 0.00 73 1011.2
20260505212648 79 162 8.0 17.0 0.00 0.00 0.00 74 1011.5
20260505212146 80 153 13.0 20.0 0.00 0.00 0.00 73 1011.5
20260505211647 80 162 15.0 17.0 0.00 0.00 0.00 73 1011.5
20260505211147 80 160 12.0 15.0 0.00 0.00 0.00 73 1011.5
20260505210647 80 168 9.0 19.0 0.00 0.00 0.00 73 1011.5
20260505210147 80 178 9.0 15.0 0.00 0.00 0.00 73 1011.5
20260505205647 79 171 11.0 16.0 0.00 0.00 0.00 72 1011.9
20260505205147 80 156 10.0 16.0 0.00 0.00 0.00 72 1011.9
20260505204647 80 165 9.0 17.0 0.00 0.00 0.00 71 1011.9
20260505204146 80 148 16.0 17.0 0.00 0.00 0.00 70 1011.5
20260505203646 80 165 13.0 16.0 0.00 0.00 0.00 72 1011.5
20260505203146 80 170 9.0 20.0 0.00 0.00 0.00 71 1011.5
20260505202649 80 164 13.0 21.0 0.00 0.00 0.00 70 1011.5
20260505202146 80 159 5.0 19.0 0.00 0.00 0.00 71 1011.9
20260505201646 80 161 9.0 20.0 0.00 0.00 0.00 68 1011.9
20260505201147 80 168 11.0 20.0 0.00 0.00 0.00 69 1011.5
20260505200647 81 155 7.0 15.0 0.00 0.00 0.00 69 1011.5
20260505200147 80 154 13.0 18.0 0.00 0.00 0.00 69 1011.9
20260505195647 80 161 8.0 14.0 0.00 0.00 0.00 68 1011.9
20260505195147 81 166 7.0 12.0 0.00 0.00 0.00 68 1011.9
20260505194647 81 160 8.0 15.0 0.00 0.00 0.00 65 1011.9
20260505194147 81 188 8.0 15.0 0.00 0.00 0.00 65 1011.5
20260505193647 81 169 10.0 16.0 0.00 0.00 0.00 65 1011.9
20260505193147 81 162 8.0 13.0 0.00 0.00 0.00 67 1011.9
20260505192647 81 144 10.0 15.0 0.00 0.00 0.00 67 1011.9
20260505192147 81 180 12.0 15.0 0.00 0.00 0.00 66 1011.9
20260505191648 81 171 11.0 14.0 0.00 0.00 0.00 66 1011.9
20260505191146 81 158 7.0 15.0 0.00 0.00 0.00 67 1011.9
20260505190647 81 154 10.0 18.0 0.00 0.00 0.00 66 1011.9
20260505190147 81 163 15.0 17.0 0.00 0.00 0.00 68 1012.2
20260505185646 81 156 8.0 16.0 0.00 0.00 0.00 67 1012.2
20260505185146 81 176 8.0 14.0 0.00 0.00 0.00 67 1012.2
20260505184646 81 161 8.0 16.0 0.00 0.00 0.00 67 1012.5
20260505184147 80 188 8.0 12.0 0.00 0.00 0.00 67 1012.5
20260505183646 80 178 9.0 16.0 0.00 0.00 0.00 67 1012.5
20260505183148 80 163 16.0 16.0 0.00 0.00 0.00 67 1012.5
20260505182647 81 164 8.0 15.0 0.00 0.00 0.00 66 1012.5
20260505182146 81 182 8.0 13.0 0.00 0.00 0.00 68 1012.9
20260505181647 80 186 9.0 15.0 0.00 0.00 0.00 67 1012.9
20260505181149 80 154 10.0 15.0 0.00 0.00 0.00 66 1012.9
20260505180648 81 160 9.0 11.0 0.00 0.00 0.00 66 1012.5
20260505180147 79 166 10.0 14.0 0.00 0.00 0.00 68 1012.9
20260505175648 80 181 12.0 15.0 0.00 0.00 0.00 67 1012.9
20260505175147 80 164 11.0 14.0 0.00 0.00 0.00 67 1012.9
20260505174647 80 152 10.0 17.0 0.00 0.00 0.00 68 1012.5
20260505174149 79 155 7.0 15.0 0.00 0.00 0.00 67 1012.9
20260505173647 79 161 11.0 15.0 0.00 0.00 0.00 68 1012.9
20260505173146 79 180 7.0 16.0 0.00 0.00 0.00 67 1012.9
20260505172647 79 176 9.0 16.0 0.00 0.00 0.00 68 1012.9
20260505172147 79 173 10.0 17.0 0.00 0.00 0.00 68 1012.9
20260505171647 79 172 10.0 16.0 0.00 0.00 0.00 67 1012.9
20260505171146 78 167 7.0 15.0 0.00 0.00 0.00 68 1012.9
20260505170647 78 161 9.0 17.0 0.00 0.00 0.00 67 1012.9
20260505170147 79 159 10.0 18.0 0.00 0.00 0.00 67 1012.9
20260505165651 78 182 5.0 15.0 0.00 0.00 0.00 69 1012.9
20260505165148 78 158 6.0 15.0 0.00 0.00 0.00 70 1012.9
20260505164646 78 144 15.0 16.0 0.00 0.00 0.00 69 1012.5
20260505164147 78 200 8.0 16.0 0.00 0.00 0.00 68 1012.9
20260505163647 78 170 9.0 16.0 0.00 0.00 0.00 69 1012.9
20260505163146 78 160 8.0 14.0 0.00 0.00 0.00 69 1012.9
20260505162647 78 177 7.0 16.0 0.00 0.00 0.00 69 1012.9
20260505162148 78 170 8.0 16.0 0.00 0.00 0.00 67 1012.9
20260505161647 78 161 9.0 13.0 0.00 0.00 0.00 69 1012.9
20260505161147 77 176 6.0 15.0 0.00 0.00 0.00 69 1012.9
20260505160648 78 161 6.0 16.0 0.00 0.00 0.00 68 1012.9
20260505160148 78 196 8.0 17.0 0.00 0.00 0.00 67 1012.5
20260505153147 77 151 10.0 15.0 0.00 0.00 0.00 69 1013.2
20260505152647 77 175 7.0 16.0 0.00 0.00 0.00 69 1013.2
20260505152146 76 174 9.0 16.0 0.00 0.00 0.00 70 1012.9
20260505151647 77 183 9.0 13.0 0.00 0.00 0.00 70 1013.2
20260505151147 77 174 4.0 12.0 0.00 0.00 0.00 72 1012.9
20260505150647 76 165 8.0 16.0 0.00 0.00 0.00 73 1012.9
20260505150146 75 147 11.0 13.0 0.00 0.00 0.00 73 1013.2
20260505140647 74 162 6.0 13.0 0.00 0.00 0.00 77 1013.2
20260505140147 74 166 11.0 13.0 0.00 0.00 0.00 77 1013.2
20260505130146 70 136 3.0 6.0 0.00 0.00 0.00 83 1012.5
20260505124649 69 132 5.0 7.0 0.00 0.00 0.00 84 1012.9
20260505124147 69 157 6.0 8.0 0.00 0.00 0.00 84 1012.2
20260505123647 69 160 5.0 9.0 0.00 0.00 0.00 84 1012.5
20260505123147 68 156 3.0 5.0 0.00 0.00 0.00 85 1012.2
20260505122647 68 156 5.0 7.0 0.00 0.00 0.00 85 1012.2
20260505122147 68 159 7.0 8.0 0.00 0.00 0.00 86 1012.2
20260505121646 68 154 3.0 6.0 0.00 0.00 0.00 86 1012.2
20260505121147 67 146 3.0 7.0 0.00 0.00 0.00 87 1012.2
20260505120646 67 151 3.0 7.0 0.00 0.00 0.00 87 1012.2
20260505120147 67 140 4.0 5.0 0.00 0.00 0.00 88 1012.2
20260505115646 66 142 4.0 5.0 0.00 0.00 0.00 88 1012.2
20260505115146 66 152 4.0 5.0 0.00 0.00 0.00 89 1012.2
20260505114647 66 150 2.0 5.0 0.00 0.00 0.00 89 1011.9
20260505114146 66 151 2.0 3.0 0.00 0.00 0.00 89 1012.2
20260505113647 66 153 3.0 4.0 0.00 0.00 0.00 89 1012.2
20260505113146 66 151 2.0 5.0 0.00 0.00 0.00 89 1012.2
20260505112647 66 137 3.0 6.0 0.00 0.00 0.00 89 1012.2
20260505112147 66 139 3.0 6.0 0.00 0.00 0.00 89 1012.2
20260505111646 66 133 4.0 5.0 0.00 0.00 0.00 89 1012.2
20260505111147 66 122 3.0 4.0 0.00 0.00 0.00 89 1011.9
20260505110652 66 149 3.0 5.0 0.00 0.00 0.00 88 1012.2
20260505110147 65 138 2.0 5.0 0.00 0.00 0.00 89 1012.2
20260505102146 65 135 3.0 4.0 0.00 0.00 0.00 88 1012.2
20260505101648 65 126 2.0 3.0 0.00 0.00 0.00 87 1012.2
20260505101146 65 146 3.0 4.0 0.00 0.00 0.00 87 1012.2
20260505100646 65 141 2.0 3.0 0.00 0.00 0.00 87 1012.2
20260505100146 65 124 1.0 2.0 0.00 0.00 0.00 87 1012.5
20260505095646 65 126 1.0 2.0 0.00 0.00 0.00 87 1012.5
20260505095146 65 96 0.0 2.0 0.00 0.00 0.00 86 1012.2
20260505094648 65 144 3.0 4.0 0.00 0.00 0.00 86 1012.2
20260505094147 65 129 0.0 2.0 0.00 0.00 0.00 86 1012.5
20260505093646 65 133 1.0 2.0 0.00 0.00 0.00 85 1012.2
20260505093146 65 124 2.0 4.0 0.00 0.00 0.00 85 1012.2
20260505092647 65 144 3.0 4.0 0.00 0.00 0.00 85 1011.9
20260505092146 65 138 2.0 5.0 0.00 0.00 0.00 85 1011.9
20260505091647 65 106 1.0 3.0 0.00 0.00 0.00 85 1012.2
20260505091147 65 134 2.0 4.0 0.00 0.00 0.00 84 1012.2
20260505090647 65 135 2.0 3.0 0.00 0.00 0.00 84 1011.9
20260505090148 65 73 1.0 3.0 0.00 0.00 0.00 84 1012.2
20260505085649 65 94 2.0 4.0 0.00 0.00 0.00 84 1012.2
20260505085147 65 138 2.0 4.0 0.00 0.00 0.00 84 1011.9
20260505084647 66 136 4.0 4.0 0.00 0.00 0.00 83 1012.2
20260505084146 66 129 3.0 4.0 0.00 0.00 0.00 83 1012.2
20260505083646 66 124 2.0 4.0 0.00 0.00 0.00 83 1012.2
20260505083146 66 137 3.0 4.0 0.00 0.00 0.00 83 1012.2
20260505082647 66 120 3.0 3.0 0.00 0.00 0.00 82 1011.9
20260505082147 66 121 1.0 3.0 0.00 0.00 0.00 82 1012.2
20260505081647 66 156 3.0 3.0 0.00 0.00 0.00 82 1012.2
20260505081147 66 146 1.0 3.0 0.00 0.00 0.00 82 1012.2
20260505080647 66 145 4.0 6.0 0.00 0.00 0.00 82 1012.2
20260505080149 66 144 3.0 5.0 0.00 0.00 0.00 81 1012.2
20260505075647 66 138 3.0 4.0 0.00 0.00 0.00 81 1012.2
20260505075148 66 125 3.0 5.0 0.00 0.00 0.00 81 1012.2
20260505074647 65 110 1.0 4.0 0.00 0.00 0.00 81 1012.5
20260505074147 66 69 0.0 2.0 0.00 0.00 0.00 81 1012.5
20260505073647 65 112 2.0 5.0 0.00 0.00 0.00 81 1012.5
20260505073147 65 134 2.0 3.0 0.00 0.00 0.00 81 1012.5
20260505072647 65 129 2.0 3.0 0.00 0.00 0.00 81 1012.5
20260505072146 65 139 3.0 3.0 0.00 0.00 0.00 81 1012.5
20260505071647 65 112 0.0 3.0 0.00 0.00 0.00 80 1012.5
20260505071147 65 120 2.0 3.0 0.00 0.00 0.00 80 1012.5
20260505070647 65 154 0.0 2.0 0.00 0.00 0.00 80 1012.5
20260505070148 65 118 0.0 3.0 0.00 0.00 0.00 79 1012.5
20260505065649 65 140 2.0 3.0 0.00 0.00 0.00 80 1012.9
20260505065147 65 88 0.0 2.0 0.00 0.00 0.00 79 1012.9
20260505064647 65 129 1.0 2.0 0.00 0.00 0.00 79 1012.9
20260505064147 65 146 2.0 3.0 0.00 0.00 0.00 79 1013.2
20260505063646 65 128 3.0 3.0 0.00 0.00 0.00 79 1013.2
20260505063147 65 136 2.0 3.0 0.00 0.00 0.00 79 1013.2
20260505062646 65 104 0.0 1.0 0.00 0.00 0.00 79 1013.5
20260505062149 65 168 1.0 2.0 0.00 0.00 0.00 78 1013.2
20260505061646 65 138 0.0 1.0 0.00 0.00 0.00 77 1013.5
20260505061146 66 129 0.0 1.0 0.00 0.00 0.00 76 1013.5
20260505060647 65 119 1.0 2.0 0.00 0.00 0.00 77 1013.5
20260505060147 66 124 0.0 1.0 0.00 0.00 0.00 76 1013.5
20260505055647 66 116 1.0 2.0 0.00 0.00 0.00 76 1013.5
20260505055146 66 104 0.0 2.0 0.00 0.00 0.00 76 1013.5
20260505054647 66 139 0.0 2.0 0.00 0.00 0.00 76 1013.5
20260505054147 66 136 2.0 3.0 0.00 0.00 0.00 76 1013.5
20260505053646 66 133 1.0 2.0 0.00 0.00 0.00 75 1013.5
20260505053147 66 139 2.0 3.0 0.00 0.00 0.00 75 1013.5
20260505052646 66 131 2.0 3.0 0.00 0.00 0.00 76 1013.2
20260505052146 66 116 1.0 3.0 0.00 0.00 0.00 75 1013.2
20260505051648 66 101 1.0 3.0 0.00 0.00 0.00 75 1013.2
20260505051148 66 108 0.0 2.0 0.00 0.00 0.00 74 1013.5
20260505050646 66 130 3.0 4.0 0.00 0.00 0.00 75 1013.2
20260505050148 66 85 3.0 4.0 0.00 0.00 0.00 74 1013.2
20260505041646 67 148 2.0 3.0 0.00 0.00 0.00 70 1013.9
20260505041147 67 141 3.0 4.0 0.00 0.00 0.00 70 1013.9
20260505040647 67 135 3.0 4.0 0.00 0.00 0.00 70 1013.9
20260505040146 67 150 2.0 4.0 0.00 0.00 0.00 69 1013.9
20260505035647 67 147 3.0 3.0 0.00 0.00 0.00 69 1013.9
20260505035147 68 155 2.0 4.0 0.00 0.00 0.00 69 1014.2
20260505034647 68 152 2.0 4.0 0.00 0.00 0.00 68 1013.9
20260505034148 68 157 1.0 5.0 0.00 0.00 0.00 68 1013.5
20260505033646 68 144 3.0 5.0 0.00 0.00 0.00 68 1013.5
20260505033148 68 163 4.0 5.0 0.00 0.00 0.00 68 1013.9
20260505032647 68 162 4.0 7.0 0.00 0.00 0.00 67 1013.9
20260505032149 68 127 6.0 8.0 0.00 0.00 0.00 67 1013.5
20260505031646 68 142 5.0 7.0 0.00 0.00 0.00 67 1013.9
20260505031147 68 151 4.0 7.0 0.00 0.00 0.00 67 1013.5
20260505030648 68 168 3.0 6.0 0.00 0.00 0.00 67 1013.9
20260505030148 68 166 3.0 8.0 0.00 0.00 0.00 66 1013.5
20260505025649 68 143 4.0 9.0 0.00 0.00 0.00 66 1013.9
20260505025148 68 147 5.0 8.0 0.00 0.00 0.00 66 1013.9
20260505024648 68 170 3.0 6.0 0.00 0.00 0.00 66 1013.9
20260505024149 68 128 6.0 8.0 0.00 0.00 0.00 65 1013.9
20260505023646 68 135 4.0 8.0 0.00 0.00 0.00 65 1013.9
20260505023148 68 147 2.0 8.0 0.00 0.00 0.00 65 1013.9